ATLAS D R/B, 2328

Orbit data source: Space-Track

ATLAS D R/B, 2328 is space debris in LEO originally from a launch on Thu, 14 Jul 1966 UTC launched from the Air Force Western Test Range (AFWTR). Debris objects in space refer to the collection of defunct objects orbiting the Earth. Examples of debris include non-operational satellites, rocket bodies, and fragments generated from explosions, collisions, or faulty payload assembly.

Loading next visibility...
ATLAS D R/B details
Identifier
2328, 1966-063C
Orbit
LEO
Last TLE update21 hours ago
Origin
Flag of USUSAF OAR (US)
ManufacturerABL
MissionSpacecraft
Bus & MotorALTAIR, Unknown motor
Mass~125 kg wet, ~125 kg dry
Launch date (UTC)
1966-07-14 (58 years ago)
Launch vehicleUnknown
Launch site
Air Force Western Test Range (AFWTR)
Object type
Payload
Rocket body
Debris
Shape & HBRCyl, 3.1 m
Radar Cross Section8.765 m², Medium (>0.1 m² and < 1m²)

Expand to show TLE details & history

TLE from 21 hours ago
0 ATLAS D R/B
1 02328U 66063C   24355.72228421  .00000328  00000-0  90406-4 0  9999
2 02328 144.2311 273.9705 0009261  43.3387 340.4240 13.69929978925693
Epoch: 2024-12-20T17:20Z
Definitive object data (Epoch: 2024-12-20T17:20:05.355Z)
Latitude13.64039°
Longitude-95.41474°
Altitude991.707 km
Speed7.362 km/s
True Right ascension16h 57m 33s
True Declination13° 33' 51"
Sunlit
Object was in daylight at TLE epoch
Visualization TLE readout
Latitude29.57827°
Longitude-123.15597°
Altitude992.899 km
Speed7.363 km/s
Apparent Right ascension18h 09m 02s
Apparent Declination-9° 16' 41"
Sunlit
Object is in daylight
Visualization observer readout
Local Sidereal Time13:31:37
Azimuth110.59° ESE
Elevation9.407°
Doppler factor1
Orbital elements
Apogee altitude1,009.573 km
Perigee altitude995.902 km
Semi-major axis7,380.875 km
Eccentricity0.0009261
Inclination144.2311°
RAAN273.9705°
Arg. of periapsis43.3387°
True anomaly340.3884°
Mean anomaly340.424°
Eccentric anomaly340.40621°
Mean motion3.4228 °/min
BSTAR0.000090406
Orbital period105.18 mins
Loading maneuver chart data...
Loading historical data...
Loading historical data...
Loading historical data...
Loading historical data...
Loading historical data...
Loading historical data...
Loading historical data...

ATLAS D R/B Visibility forecast

Observer location: undefined°, undefined

Span
Click to sort rows by Start time (UTC) header in descending order
Start Az.
Max El. time (UTC)
Max El. Az.
Max El.
End time (UTC)
End Az.
10 mins2024-12-21 14:30:29.180Z113.631° SE2024-12-21 14:35:29.180Z192.32° SSW39.573°2024-12-21 14:40:29.180Z264.694° W
8 mins2024-12-21 16:11:29.180Z149.712° SSE2024-12-21 16:15:29.180Z211.234° SW28.464°2024-12-21 16:19:29.180Z260.445° W
7 mins2024-12-22 10:02:29.180Z114.961° SE2024-12-22 10:05:29.180Z151.529° SSE19.904°2024-12-22 10:09:29.180Z196.949° SSW
9 mins2024-12-22 11:41:29.180Z101.557° ESE2024-12-22 11:45:29.180Z170.021° S34.701°2024-12-22 11:50:29.180Z233.62° WSW
10 mins2024-12-22 13:20:29.180Z101.164° ESE2024-12-22 13:24:29.180Z162.859° S40.963°2024-12-22 13:30:29.180Z256.975° W
|